Temp
94 95 91 94 96 88 98 95 96 95 97 93 99 99 95 94 101 104 92 83 82 82 82 82 83 84 84 84 83 82 82 82 81 81 81 81 81 80 80 79 80 80 79
94 89 90 90 89 92 97 99 97 95 95 97 97 99 100 99 103 100 87 90 82 82 82 84 84 85 85 84 84 83 83 83 82 81 81 80 80 80 80 79 79 79 79
90 92 94 95 95 100 96 96 96 94 98 101 97 100 100 101 95 99 93 95 88 82 83 84 83 83 83 83 83 82 82 82 81 81 80 80 79 79 79 80 79 79 79
94 94 90 88 88 99 99 98 90 94 85 89 99 82 82 101 99 98 99 98 95 94 84 82 82 82 82 82 82 81 81 81 80 80 80 80 79 79 79 79 79 79 78
93 95 93 87 96 99 100 97 76 97 84 93 96 100 99 91 96 101 99 98 98 98 92 82 82 82 83 82 82 81 81 80 80 80 80 80 79 79 78 78 78 78 78
96 97 99 97 97 96 89 82 91 94 95 95 96 97 99 96 93 99 92 99 97 97 92 89 86 86 82 82 82 81 81 81 80 80 80 79 79 79 79 78 77 77 77
90 96 97 94 96 95 90 93 94 92 95 95 94 76 98 99 100 88 92 100 95 96 88 91 89 86 86 81 81 81 81 81 80 80 80 79 78 78 78 78 77 77 77
97 96 95 97 96 79 92 92 91 91 96 97 87 93 70 73 89 97 99 101 96 96 94 95 89 92 89 89 85 81 81 81 81 81 79 78 77 77 77 77 77 77 77
97 96 95 95 95 94 84 92 92 90 85 95 91 88 85 68 70 80 96 98 96 97 97 97 95 93 91 91 84 83 81 80 81 80 79 78 77 77 76 76 76 76 76
95 97 96 94 94 97 87 94 94 91 89 89 91 96 91 89 83 72 82 93 94 93 94 96 97 94 89 90 87 84 79 78 80 80 79 77 77 76 77 77 76 77 76
96 98 97 94 93 95 92 93 91 88 93 91 88 81 87 93 92 87 86 82 95 98 98 95 98 96 93 93 93 85 78 78 78 78 78 77 76 76 76 77 76 76 77
98 96 98 95 94 95 94 95 92 89 89 92 93 91 91 91 90 89 89 89 91 95 98 99 98 97 97 95 90 78 78 77 76 77 76 76 75 75 75 75 75 76 76
101 95 95 96 96 93 93 94 90 88 88 89 89 93 96 95 95 93 91 91 91 95 96 98 99 99 99 96 94 84 78 76 75 75 75 75 74 74 74 74 74 75 75
101 95 94 97 96 95 95 91 92 91 89 84 88 89 93 96 97 95 92 87 87 91 90 91 99 98 98 97 93 82 83 75 75 73 73 74 73 73 73 73 73 73 73
100 96 95 95 95 95 94 93 93 91 91 88 89 88 88 91 83 85 86 85 89 84 88 81 93 97 98 97 90 88 88 75 75 73 72 72 72 72 72 72 72 71 70
94 93 78 92 94 93 93 92 93 92 90 90 91 87 84 90 93 93 89 82 80 78 85 94 88 85 89 96 88 90 89 76 74 73 72 71 71 71 71 71 71 70 69
93 91 90 90 91 91 92 91 90 89 87 86 88 86 88 87 90 92 92 91 89 85 86 90 93 93 88 86 90 89 89 87 84 72 71 71 70 70 70 70 70 70 69
91 91 89 88 88 88 88 87 87 88 86 84 86 86 85 89 86 86 88 86 87 86 84 79 84 83 82 85 83 81 87 92 90 77 71 70 69 68 68 68 69 68 66
89 89 86 86 86 86 86 86 85 86 86 86 86 85 84 84 83 85 84 84 86 87 86 85 85 86 81 82 78 83 84 84 88 82 72 70 69 68 67 67 66 65 64
85 85 83 82 82 82 83 83 83 84 84 85 86 85 85 85 83 83 84 82 83 82 84 84 85 87 88 88 83 80 84 87 85 89 85 79 73 69 68 67 66 66 64
82 82 81 81 83 85 86 80 79 81 82 83 84 85 87 81 76 78 82 82 79 81 83 84 84 86 86 87 84 88 86 87 88 90 88 90 84 79 78 68 72 68 64
73 76 76 78 79 83 65 68 72 77 79 80 80 82 84 81 80 73 72 71 73 76 76 78 80 80 78 81 86 85 85 83 81 91 86 87 90 86 80 80 74 70 64
77 78 78 79 80 78 64 65 67 76 76 78 79 80 83 88 81 84 73 70 70 69 69 76 75 76 75 79 80 79 79 80 80 86 84 82 88 86 90 90 71 67 65
77 77 78 77 76 72 63 62 64 70 73 75 77 77 78 79 78 75 76 77 79 81 82 83 80 79 82 82 79 81 78 78 81 84 83 78 85 83 88 91 68 66 64
75 75 77 76 76 75 62 61 62 73 76 75 76 76 77 76 65 61 73 72 73 76 78 70 68 67 67 67 69 78 77 78 79 83 87 83 84 84 86 86 72 64 62
75 77 75 76 67 75 62 60 64 76 73 76 76 77 72 71 60 58 70 70 68 72 75 76 76 76 72 75 65 75 80 78 79 80 85 80 83 82 73 82 77 70 71
MSLP
1015.20 1015.02 1015.06 1014.78 1014.60 1014.53 1013.84 1014.09 1013.91 1013.94 1013.67 1013.85 1013.53 1013.69 1013.70 1013.61 1013.06 1012.98 1014.76 1015.39 1016.02 1016.49 1016.71 1016.80 1016.85 1016.94 1017.05 1017.20 1017.32 1017.44 1017.56 1017.71 1017.97 1018.25 1018.47 1018.63 1018.84 1019.11 1019.42 1019.66 1019.84 1020.15 1020.43
1015.08 1015.07 1014.83 1014.72 1014.69 1014.20 1013.86 1013.94 1013.94 1014.06 1013.60 1013.12 1013.35 1013.29 1013.07 1012.86 1012.76 1013.25 1014.37 1015.32 1015.79 1016.24 1016.56 1016.65 1016.72 1016.74 1016.83 1016.96 1017.09 1017.16 1017.22 1017.30 1017.49 1017.78 1018.00 1018.23 1018.48 1018.75 1019.00 1019.29 1019.54 1019.83 1020.08
1014.90 1015.07 1014.41 1014.49 1013.95 1013.70 1014.27 1014.13 1013.72 1013.49 1013.21 1012.81 1013.13 1012.85 1012.63 1012.58 1012.78 1013.23 1014.26 1014.42 1015.54 1016.03 1016.17 1016.46 1016.69 1016.81 1016.85 1016.88 1016.87 1016.98 1017.06 1017.11 1017.17 1017.33 1017.58 1017.84 1018.10 1018.37 1018.65 1018.85 1019.16 1019.49 1019.86
1014.70 1014.57 1014.43 1014.47 1014.11 1013.70 1013.38 1013.37 1013.28 1013.20 1013.72 1013.42 1012.40 1013.32 1013.50 1011.98 1012.34 1013.06 1013.16 1013.47 1014.18 1014.92 1016.00 1016.20 1016.55 1016.78 1016.80 1016.81 1016.88 1016.95 1017.05 1017.09 1017.10 1017.19 1017.32 1017.54 1017.79 1018.02 1018.25 1018.49 1018.69 1018.98 1019.40
1014.15 1014.30 1013.69 1014.14 1013.98 1013.26 1013.01 1012.75 1013.09 1012.86 1013.43 1012.54 1011.90 1011.56 1011.62 1012.10 1012.16 1011.93 1012.44 1013.31 1013.57 1013.99 1015.12 1016.14 1016.29 1016.53 1016.61 1016.69 1016.74 1016.86 1016.96 1017.04 1017.05 1017.13 1017.28 1017.46 1017.72 1017.95 1018.01 1018.13 1018.31 1018.54 1018.92
1013.99 1013.83 1013.14 1013.47 1013.80 1013.31 1013.21 1013.50 1013.31 1013.30 1013.27 1012.34 1011.19 1010.53 1010.82 1011.85 1011.90 1012.05 1012.73 1012.80 1013.35 1013.92 1014.60 1015.31 1015.91 1016.17 1016.36 1016.44 1016.62 1016.82 1017.06 1017.20 1017.33 1017.43 1017.45 1017.50 1017.62 1017.73 1017.79 1017.88 1017.97 1018.11 1018.50
1013.66 1013.36 1013.11 1013.21 1013.43 1013.30 1013.27 1013.66 1013.60 1013.48 1013.00 1011.96 1011.28 1011.29 1011.27 1011.44 1012.62 1012.65 1012.77 1012.19 1012.90 1013.52 1014.10 1014.41 1015.03 1015.57 1016.14 1016.28 1016.51 1016.78 1016.90 1017.14 1017.18 1017.19 1017.35 1017.46 1017.48 1017.55 1017.68 1017.73 1017.82 1017.87 1018.10
1013.32 1013.40 1013.29 1012.80 1012.92 1013.54 1013.03 1013.75 1014.05 1013.73 1012.69 1011.95 1011.18 1011.59 1012.64 1011.99 1011.37 1011.27 1011.95 1012.23 1012.61 1012.68 1013.11 1013.74 1014.38 1014.80 1015.28 1015.44 1016.03 1016.49 1016.65 1016.74 1016.96 1016.99 1017.16 1017.33 1017.45 1017.45 1017.60 1017.68 1017.66 1017.79 1017.93
1013.08 1013.11 1013.11 1013.20 1013.14 1013.31 1013.26 1013.41 1013.85 1013.84 1013.21 1012.09 1012.12 1011.94 1011.88 1012.85 1014.17 1011.53 1010.96 1012.50 1012.68 1012.53 1012.65 1012.96 1013.68 1014.33 1014.83 1014.92 1015.69 1015.99 1016.30 1016.58 1016.57 1016.88 1017.09 1017.18 1017.25 1017.36 1017.30 1017.42 1017.55 1017.61 1017.77
1012.57 1012.65 1012.79 1013.06 1013.38 1013.08 1012.95 1013.03 1013.68 1014.02 1013.79 1012.71 1012.09 1011.75 1011.94 1012.59 1011.22 1012.57 1012.10 1012.50 1012.78 1012.88 1012.97 1012.95 1012.76 1013.64 1014.26 1014.64 1014.88 1015.35 1016.03 1016.30 1016.39 1016.54 1016.76 1016.92 1017.02 1017.15 1017.18 1017.15 1017.25 1017.31 1017.34
1012.16 1012.15 1012.18 1012.69 1013.07 1013.07 1012.33 1012.25 1013.44 1013.97 1013.48 1013.25 1012.55 1012.56 1012.36 1012.26 1012.44 1012.91 1012.37 1012.08 1011.61 1011.78 1012.23 1012.80 1012.55 1012.51 1013.36 1013.84 1014.09 1014.73 1015.45 1015.94 1016.25 1016.46 1016.69 1016.89 1016.96 1017.06 1017.06 1017.05 1017.05 1017.15 1017.21
1011.21 1011.72 1011.61 1012.31 1012.57 1012.67 1012.05 1012.02 1013.26 1013.90 1013.85 1013.20 1012.93 1012.68 1012.44 1011.99 1011.91 1012.08 1011.60 1011.48 1011.43 1011.52 1011.96 1012.20 1012.30 1012.31 1012.34 1012.92 1013.70 1014.51 1015.17 1015.70 1016.02 1016.18 1016.38 1016.46 1016.45 1016.45 1016.58 1016.67 1016.81 1016.91 1016.91
1009.64 1010.66 1011.31 1011.66 1012.05 1012.47 1012.64 1012.64 1013.20 1013.71 1013.65 1013.56 1013.48 1012.72 1011.87 1011.96 1012.02 1012.06 1011.94 1011.73 1011.43 1011.31 1011.42 1011.68 1011.85 1011.89 1012.22 1012.45 1012.60 1013.42 1014.52 1015.09 1015.38 1015.66 1015.82 1015.99 1016.04 1016.06 1016.06 1016.13 1016.36 1016.44 1016.55
1009.36 1010.15 1010.83 1010.98 1011.46 1011.97 1012.21 1012.58 1013.04 1013.15 1013.24 1013.60 1013.37 1013.26 1012.55 1011.78 1011.58 1011.82 1012.16 1012.13 1011.75 1010.98 1011.01 1011.00 1011.15 1011.52 1011.75 1012.19 1012.40 1013.14 1013.49 1014.09 1014.68 1015.11 1015.40 1015.63 1015.76 1015.87 1016.01 1016.05 1016.04 1016.13 1016.28
1009.50 1009.94 1009.40 1009.51 1010.32 1011.40 1011.94 1012.28 1012.43 1012.53 1012.62 1012.89 1013.02 1012.95 1013.12 1012.72 1012.16 1012.01 1012.27 1012.41 1011.97 1011.63 1010.83 1011.34 1010.40 1010.49 1010.90 1011.60 1012.49 1012.97 1012.98 1013.56 1013.82 1014.40 1014.89 1015.13 1015.26 1015.36 1015.30 1015.23 1015.48 1015.78 1015.97
1009.85 1009.49 1010.83 1009.86 1009.83 1010.98 1011.53 1011.94 1011.98 1011.97 1012.16 1012.46 1012.54 1012.78 1012.97 1012.76 1011.93 1011.87 1012.01 1012.43 1012.63 1012.79 1011.63 1010.99 1010.63 1010.75 1011.57 1011.05 1011.85 1012.42 1012.61 1012.73 1013.25 1013.62 1014.06 1014.38 1014.41 1014.51 1014.98 1015.16 1015.21 1015.26 1015.35
1009.96 1009.97 1009.55 1009.84 1010.10 1010.99 1011.38 1011.53 1011.88 1011.86 1012.20 1012.33 1012.32 1012.28 1012.34 1012.79 1012.56 1012.14 1012.03 1012.05 1012.41 1012.57 1011.92 1011.41 1011.25 1010.84 1011.48 1012.09 1011.90 1012.49 1012.50 1012.60 1012.60 1012.98 1013.20 1013.50 1013.93 1014.24 1014.35 1014.54 1014.56 1014.53 1014.73
1010.35 1010.35 1010.59 1010.58 1011.00 1011.25 1011.42 1011.65 1011.98 1012.01 1012.25 1012.32 1012.33 1012.56 1012.59 1012.48 1012.64 1012.84 1012.83 1012.57 1012.47 1012.69 1012.70 1012.16 1011.98 1011.85 1011.92 1011.77 1011.96 1012.30 1012.37 1011.72 1011.58 1011.85 1012.38 1012.84 1013.26 1013.43 1013.64 1013.80 1013.91 1014.06 1014.25
1010.28 1010.64 1010.77 1010.71 1010.76 1011.15 1011.54 1011.72 1011.75 1012.12 1012.34 1012.28 1012.40 1012.53 1012.76 1012.93 1012.96 1012.88 1013.07 1012.96 1012.56 1012.26 1012.29 1011.99 1011.48 1011.07 1011.46 1011.54 1011.58 1011.60 1011.70 1011.66 1011.49 1011.17 1011.65 1012.14 1012.44 1012.77 1013.03 1013.31 1013.26 1013.45 1013.36
1010.90 1011.11 1011.34 1011.47 1011.45 1011.67 1011.93 1011.77 1011.62 1011.81 1012.43 1012.60 1012.58 1012.76 1012.79 1012.66 1012.73 1012.76 1012.81 1013.14 1012.83 1012.52 1012.35 1012.02 1011.41 1010.82 1010.64 1010.68 1010.89 1011.14 1010.96 1010.87 1010.54 1010.04 1009.98 1010.43 1010.97 1011.54 1012.02 1012.39 1012.82 1013.07 1013.19
1012.09 1012.26 1012.25 1012.22 1012.12 1011.88 1012.11 1012.84 1012.82 1012.11 1012.08 1012.65 1012.73 1012.73 1012.49 1012.81 1012.80 1013.08 1013.19 1012.71 1012.78 1012.57 1012.28 1011.73 1011.18 1010.63 1010.30 1010.09 1010.15 1010.11 1010.00 1009.94 1009.42 1009.54 1009.62 1009.23 1009.97 1010.56 1010.95 1011.58 1011.41 1011.97 1012.40
1013.35 1013.05 1013.01 1013.08 1013.10 1012.84 1013.29 1013.19 1013.59 1013.12 1012.07 1012.70 1012.98 1012.87 1012.83 1012.56 1012.48 1012.99 1013.11 1013.02 1013.18 1012.91 1012.64 1012.31 1011.62 1010.97 1010.80 1010.64 1010.36 1010.32 1009.94 1009.53 1009.02 1008.95 1009.21 1008.42 1008.40 1008.85 1009.14 1009.15 1009.60 1010.02 1010.75
1013.14 1013.12 1013.10 1013.21 1013.01 1013.27 1013.78 1013.73 1013.60 1013.71 1012.43 1012.52 1013.05 1012.89 1012.73 1012.25 1012.57 1012.75 1013.00 1012.99 1012.77 1012.51 1012.50 1012.26 1011.98 1011.52 1011.06 1010.93 1010.72 1010.42 1010.17 1009.67 1009.30 1008.96 1009.03 1008.18 1008.03 1007.65 1007.44 1007.39 1007.68 1008.76 1009.41
1013.40 1013.16 1013.44 1013.56 1013.32 1013.48 1013.82 1013.82 1014.02 1013.70 1012.58 1013.08 1012.28 1013.42 1013.15 1012.91 1012.98 1013.33 1013.34 1013.02 1012.44 1011.91 1011.59 1011.39 1011.31 1011.26 1010.70 1010.57 1010.78 1010.21 1009.96 1009.77 1009.33 1008.71 1008.22 1007.92 1007.75 1007.52 1007.03 1006.54 1007.36 1008.04 1009.07
1013.46 1013.69 1013.56 1013.67 1013.36 1012.96 1013.92 1014.03 1014.09 1012.99 1012.67 1013.22 1013.27 1012.95 1013.15 1013.06 1013.06 1013.32 1013.38 1012.83 1012.44 1011.91 1011.03 1010.65 1010.73 1010.86 1010.38 1010.22 1010.28 1010.21 1009.58 1009.04 1008.19 1007.51 1006.98 1006.91 1006.92 1006.80 1006.79 1006.75 1007.57 1007.90 1008.47
1013.79 1013.67 1013.60 1013.61 1013.42 1013.06 1013.95 1014.52 1014.33 1013.71 1013.41 1012.94 1012.35 1012.59 1012.50 1012.68 1013.37 1013.51 1013.36 1012.83 1012.34 1011.95 1011.38 1010.72 1010.79 1010.52 1009.91 1009.57 1009.40 1009.52 1008.69 1008.07 1007.67 1007.08 1006.62 1007.09 1006.54 1006.30 1006.70 1006.62 1006.76 1007.54 1008.30
Wind_Speed
2 6 1 4 4 3 2 3 3 2 4 5 5 6 4 5 3 2 7 14 10 6 5 5 6 5 6 7 8 10 11 13 13 15 16 16 16 16 15 16 17 17 15
5 3 4 4 4 7 3 4 5 5 3 4 6 7 2 5 6 4 9 8 12 10 8 7 8 6 5 4 4 5 7 10 10 12 13 14 14 14 15 15 15 16 17
6 5 5 4 5 2 2 6 8 3 7 5 4 4 9 4 8 4 11 10 10 12 12 9 8 7 6 4 3 3 3 2 2 6 10 11 12 13 15 15 15 16 16
6 5 2 3 5 3 5 5 6 3 9 5 5 10 11 3 6 5 9 8 11 10 11 13 10 8 6 5 4 4 4 3 3 1 3 6 8 12 15 17 16 15 15
5 6 4 4 5 7 5 3 7 1 5 5 3 7 4 9 10 10 5 2 3 5 7 11 12 10 7 6 6 6 6 6 5 4 5 4 2 1 3 13 17 17 15
5 5 7 3 4 8 3 7 7 7 7 8 9 6 7 6 4 6 4 8 9 3 10 11 8 8 11 9 8 7 6 5 4 4 3 2 0 1 2 3 7 15 16
5 6 8 8 7 7 7 4 3 8 7 5 10 13 7 7 7 5 13 7 11 7 7 7 5 6 7 10 10 9 8 6 6 6 4 2 2 3 4 5 4 7 14
10 5 8 6 4 5 5 2 3 7 7 4 9 3 4 7 5 11 6 2 8 4 6 8 7 4 9 9 10 11 9 8 7 9 5 3 3 2 4 5 5 5 9
10 9 7 7 3 4 2 5 4 5 7 1 5 6 5 3 6 9 6 4 4 4 5 6 4 5 5 1 12 11 11 9 9 7 5 3 3 2 3 3 4 5 7
11 8 8 8 7 8 4 5 4 5 3 6 3 5 5 5 8 3 3 6 5 4 4 5 8 8 7 6 6 4 14 10 10 8 6 4 4 3 3 3 5 5 5
8 10 9 9 8 7 5 3 5 5 3 5 6 3 6 7 3 5 2 7 8 7 7 8 6 5 10 7 7 11 16 13 10 9 7 5 4 4 5 5 5 6 6
11 11 9 9 8 8 7 3 6 7 7 4 6 4 6 6 4 6 5 4 6 3 4 5 5 6 6 8 6 16 15 13 11 10 9 8 7 6 5 5 6 6 6
9 14 9 6 8 9 8 5 5 6 8 8 7 8 6 6 6 6 7 7 7 3 4 4 5 5 6 6 8 15 17 15 14 13 12 11 10 8 7 6 7 7 7
7 13 8 7 8 6 8 7 6 6 8 8 9 8 9 7 5 5 6 5 7 7 5 8 7 6 5 5 3 14 13 19 17 15 13 13 11 9 9 8 8 8 8
7 8 11 10 9 7 8 6 7 7 6 7 8 7 6 8 4 3 2 5 6 8 8 6 5 10 7 7 8 9 9 18 18 16 14 13 12 12 12 12 10 10 8
8 7 8 10 5 5 7 6 7 8 7 7 8 6 5 8 8 4 3 3 4 5 9 9 5 2 6 4 10 9 10 14 18 17 16 15 14 14 13 12 11 10 9
6 6 8 3 3 5 6 6 7 9 5 7 7 6 6 4 6 6 7 3 5 5 9 9 10 7 4 6 4 7 8 8 10 19 19 17 16 15 14 13 12 12 11
10 7 9 6 6 4 3 3 7 7 6 6 8 6 8 5 4 5 7 5 5 7 9 10 9 8 9 6 5 8 8 9 10 18 20 19 18 16 15 14 14 13 12
9 11 9 9 9 7 6 4 2 1 4 5 5 5 6 7 7 6 7 7 7 5 6 9 9 6 5 6 7 8 8 9 9 8 18 17 18 17 16 15 14 14 13
9 8 5 3 4 4 4 5 5 4 2 5 5 6 6 6 7 6 5 7 7 7 7 8 10 9 7 8 3 6 6 9 10 9 12 16 19 20 18 17 15 16 14
3 3 2 4 5 5 2 4 5 3 4 7 7 7 8 5 2 5 7 6 7 7 9 9 10 9 8 7 6 5 7 9 8 6 8 8 9 9 11 17 17 20 18
7 2 1 3 1 3 6 7 4 3 3 5 8 8 8 9 11 9 13 7 6 8 8 8 9 9 8 9 8 8 8 8 10 6 7 10 7 9 10 10 20 20 23
4 3 3 4 2 5 6 7 5 5 1 2 7 8 8 7 8 8 3 9 12 15 14 9 10 10 9 8 8 8 9 8 9 9 8 10 9 10 8 10 18 23 18
5 4 5 6 3 2 5 5 5 6 4 6 5 8 8 8 5 5 7 10 10 10 9 8 10 11 11 6 7 9 8 8 10 11 11 10 9 10 11 8 17 19 17
3 5 5 6 5 3 4 4 6 5 3 6 6 4 7 7 5 3 7 10 11 12 11 9 8 12 11 10 10 7 10 11 11 10 8 8 10 9 8 9 7 15 16
5 6 5 6 3 1 7 2 6 5 5 6 7 8 7 5 7 4 6 9 11 11 11 11 12 13 14 15 16 12 10 11 11 11 6 7 10 6 4 8 5 7 8
Wind_Direction
249 272 3 300 309 273 200 257 286 276 289 336 190 216 231 217 257 251 95 137 153 180 214 231 236 224 228 233 230 233 233 231 228 228 228 228 224 219 213 216 219 218 211
290 293 240 242 252 260 43 338 356 305 311 206 170 230 269 242 194 165 136 146 155 171 191 205 194 206 211 220 226 230 233 240 231 229 230 230 230 224 223 224 223 220 216
212 273 274 250 234 237 231 224 243 300 269 209 212 225 204 266 52 180 150 146 153 168 171 161 163 163 160 155 178 145 138 158 204 226 226 228 230 227 227 230 230 226 217
228 237 244 296 343 247 233 251 233 164 310 242 252 171 271 161 113 177 236 159 167 151 164 159 157 159 157 156 149 149 136 122 108 134 212 221 229 230 229 233 232 225 217
224 246 231 173 231 260 216 253 296 357 216 285 304 211 228 119 227 183 119 183 90 158 153 159 160 166 166 168 170 170 162 150 142 126 111 113 124 349 252 232 230 231 214
236 226 253 204 245 254 58 50 345 355 323 287 265 161 198 187 154 166 86 192 138 189 142 160 168 177 175 177 185 183 182 179 164 156 137 134 123 311 300 303 252 227 218
229 201 265 178 206 267 128 313 281 229 275 242 271 2 190 148 202 163 183 203 132 191 146 139 174 179 176 180 182 188 194 205 205 202 199 207 269 297 296 296 284 235 210
250 263 268 291 220 100 166 201 288 300 258 295 295 269 102 261 192 166 179 182 151 196 181 187 182 165 192 179 168 187 201 208 218 215 206 246 277 298 315 304 293 266 224
245 226 265 267 331 299 143 178 209 269 308 227 319 314 333 81 200 312 120 235 110 223 223 160 184 193 205 339 150 187 193 204 206 195 209 208 224 257 298 331 324 287 241
212 235 226 231 236 262 110 142 202 293 305 296 228 271 333 348 357 82 304 162 181 239 201 272 176 190 168 224 162 149 165 182 194 200 208 219 218 246 271 293 317 322 260
205 241 212 218 223 232 227 187 147 222 222 277 302 210 2 315 139 315 324 200 181 195 192 193 234 184 174 217 194 174 170 180 193 209 218 236 245 252 262 273 285 302 315
191 208 214 201 224 239 238 220 208 226 257 277 287 321 273 276 272 237 256 247 248 266 254 237 218 219 193 189 180 128 167 181 193 203 212 219 224 229 242 260 271 279 278
206 160 186 204 215 218 254 242 192 239 242 246 225 264 274 246 244 278 299 296 297 278 212 226 246 212 220 202 176 158 176 184 192 200 209 214 217 226 234 238 254 263 269
233 138 170 206 197 244 219 219 250 255 232 236 250 246 288 294 260 232 259 291 295 281 183 204 184 203 217 216 228 178 177 185 192 196 203 212 214 223 238 248 250 256 264
260 169 192 184 196 222 228 260 242 241 245 216 245 241 252 271 284 266 265 262 281 291 304 177 219 174 194 187 179 206 223 186 191 193 198 206 212 223 228 226 235 247 256
246 272 71 237 171 257 246 242 258 216 225 231 237 239 220 277 313 276 267 28 9 314 291 303 314 116 237 241 169 211 232 170 191 192 197 204 208 214 225 232 237 239 243
239 238 292 304 246 233 246 258 293 286 282 260 264 275 276 254 274 307 318 302 258 251 283 289 305 309 344 266 265 229 242 227 202 197 200 204 208 213 221 229 232 234 238
215 216 228 227 224 245 231 266 268 291 281 278 280 288 277 288 296 283 275 272 294 314 289 286 290 294 298 258 251 264 255 250 239 198 200 204 207 207 214 223 229 232 234
200 211 203 204 193 185 192 180 151 280 291 302 309 315 303 294 287 290 305 305 276 270 258 276 286 263 241 237 225 226 238 244 262 230 197 203 206 207 210 220 225 231 228
209 208 197 168 166 167 171 176 146 142 273 286 281 281 286 286 278 277 274 272 262 261 267 272 268 272 271 289 201 247 266 237 241 244 213 200 203 207 210 213 222 231 234
200 188 165 157 154 160 114 60 4 36 20 325 306 305 286 24 188 266 283 294 328 288 287 296 293 289 287 291 281 276 276 273 268 279 282 271 195 202 210 219 226 222 229
357 349 39 317 9 47 80 78 347 304 34 302 301 304 306 293 267 221 222 244 293 272 272 280 286 286 295 295 291 294 296 304 294 285 278 297 234 224 215 209 202 211 208
260 244 237 221 205 88 50 43 9 296 291 318 300 303 296 309 343 324 204 227 238 233 236 262 272 270 278 274 277 280 271 278 282 291 285 272 278 282 233 244 185 194 192
238 261 259 263 265 83 77 54 325 266 23 323 356 312 310 311 346 327 318 302 301 303 284 269 255 257 259 284 300 291 292 285 272 256 242 259 263 263 286 262 167 175 182
236 244 258 258 260 126 81 29 322 336 276 283 258 262 288 295 98 60 309 313 311 304 299 292 281 302 292 272 257 274 270 270 273 275 267 260 266 266 261 258 172 178 180
222 245 236 266 18 280 137 53 348 301 296 301 336 306 298 323 116 65 332 318 306 301 304 306 300 285 257 247 234 229 240 252 267 274 285 295 283 282 307 267 211 172 195